AirNav   Everest Fuels
 
 1721 users online  

TN61 Ranger Heliport
Bartlett, Tennessee, USA

GOING TO BARTLETT?


FAA INFORMATION EFFECTIVE 10 SEPTEMBER 2020

Location

FAA Identifier: TN61
Lat/Long: 35-12-06.3180N 089-52-06.3100W
35-12.105300N 089-52.105167W
35.2017550,-89.8684194
(estimated)
Elevation: 300 ft. / 91 m (estimated)
Variation: 02E (1985)
From city: 3 miles NE of BARTLETT, TN
Time zone: UTC -5 (UTC -6 during Standard Time)
Zip code: 38134

Heliport Operations

Heliport use: Private use. Permission required prior to landing
Activation date: 09/1979
Control tower: no
ARTCC: MEMPHIS CENTER
FSS: JACKSON FLIGHT SERVICE STATION
Attendance: MON-FRI 0800-1600
Wind indicator: no
Segmented circle: no

Heliport Communications

WX AWOS-A at 2M8 (6 nm NW): 122.8 ((901) 873-0903)
WX AWOS-AV at M01 (9 nm W): 122.7 ((901) 354-9296)
WX AWOS-3 at NQA (9 nm N): 118.925 (901-873-3630)
WX ASOS at MEM (11 nm SW): 127.75 (901-842-8483)
WX AWOS-3 at OLV (14 nm S): 119.925 (662-893-5906)
WX ASOS at AWM (18 nm W): 118.175 (870-733-9987)

Nearby radio navigation aids

VOR radial/distance  VOR name  Freq  Var
MEMr026/12.5MEMPHIS VORTAC117.5001E
GQEr102/31.1GILMORE VOR/DME113.0004E
HLIr322/31.7HOLLY SPRINGS VORTAC112.4003E

Heliport Services

Fuel available: A

Runway Information

Helipad H1

Dimensions: 603 x 452 ft. / 184 x 138 m
Surface: turf
Latitude: 35-12.105300N
Longitude: 089-52.105167W
Elevation: 300.0 ft.
Traffic pattern: leftleft

Heliport Ownership and Management from official FAA records

Ownership: Privately-owned
Owner: RANGER TOOL CO
5786 FERGUSON
BARTLETT, TN 38134
Phone 901-386-4514
Manager: JERRY W. DAVIS
5786 FERGUSON
BARTLETT, TN 38134
Phone 901-386-4514

Heliport Operational Statistics

Aircraft based on the field: 1
Helicopters: 1
    

Additional Remarks

A52-H1 PLINE SOUTH OF HELIPORT; BLDG NORTH OF HELIPORT.
FOR CD CTC MEMPHIS APCH AT 901-842-8457.

Instrument Procedures

There are no published instrument procedures at TN61.

Some nearby airports with instrument procedures:

2M8 - Charles W Baker Airport (6 nm NW)
M01 - General Dewitt Spain Airport (9 nm W)
KNQA - Millington-Memphis Airport (9 nm N)
KMEM - Memphis International Airport (11 nm SW)
KOLV - Olive Branch Airport (14 nm S)
KAWM - West Memphis Municipal Airport (18 nm W)
 
Loc | Ops | Rwys | IFR | FBO | Links
Com | Nav | Svcs | Stats | Notes
Area around TN61 (Ranger Heliport)
 
Road maps at: MapQuest Bing Google
 
Aerial photo
No photo
 
Sectional chart

 
Airport distance calculator
Flying to Ranger Heliport? Find the distance to fly.

From to TN61

Sunrise and sunset
Times for 24-Sep-2020
 Local
(UTC-5)
 Zulu
(UTC)
Morning civil twilight06:2511:25
Sunrise06:5111:51
Sunset18:5223:52
Evening civil twilight19:1700:17

Current date and time
Zulu (UTC)  24-Sep-2020 17:50:39
Local (UTC-5)  24-Sep-2020 12:50:39
 
METAR
KNQA 
9nm N 
241650Z 04008KT 8SM BKN007 OVC022 17/16 A2992
KMEM 
10nm SW 
241654Z 04010KT 10SM BKN009 OVC019 18/17 A2991 RMK AO2 SLP125 CIG 007V011 T01830167
KOLV 
14nm S 
241650Z 03010KT 10SM BKN009 OVC011 18/17 A2989
KAWM 
18nm W 
241653Z AUTO 04008KT 10SM BKN005 OVC016 18/16 A2991 RMK AO2 RAB02E37 CIG 004V008 SLP125 P0000 T01780161
TAF
KMEM 
10nm SW 
241514Z 2415/2518 04010KT P6SM BKN007 OVC025 TEMPO 2415/2417 4SM -DZ BR FM241700 05009KT P6SM OVC012 TEMPO 2417/2420 5SM -DZ BR FM242300 03005KT 4SM BR VCSH OVC025 FM250300 03003KT 4SM BR OVC005 FM251400 02003KT P6SM SCT005 SCT200
NOTAMs
Click for the latest NOTAMs
NOTAMs are issued by the DoD/FAA and will open in a separate window not controlled by AirNav.

 

 
 

Would you like to see your business listed on this page?

 If your business provides an interesting product or service to pilots, flight crews, aircraft, or users of the Ranger Heliport, you should consider listing it here.  To start the listing process, click on the button below
 
Add a business
 

Other Pages about Ranger Heliport

Update a link
 
Copyright © AirNav, LLC. All rights reserved. Privacy Policy  Contact